Simultaneous Nadir Overpasses (SNOs) Predictions

Prediction of SNOs between LANDSAT-8 and NOAA-19 Satellite Orbit:

Table of predicted SNOs for the next 14.0 days since TLE Epoch: 11/25/2017
Index Date (LANDSAT-8) Time (LANDSAT-8) Lat,Lon (LANDSAT-8) SZA (LANDSAT-8 ) Date (NOAA-19) Time (NOAA-19) Lat,Lon (NOAA-19) SZA (NOAA-19 ) Distance(km) Time Diff (sec)
1 11/25/2017 21:27:48 76.88,-130.83 98.10 11/25/2017 21:27:32 76.86,-130.84 98.08 2.25 16
2 11/25/2017 22:17:16 -76.85, 36.69 81.94 11/25/2017 22:18:26 -76.83, 36.55 81.94 3.77 70
3 11/28/2017 03:01:32 -76.87, -34.30 81.52 11/28/2017 03:01:09 -76.87, -34.22 81.52 2.12 23
4 11/28/2017 03:51:00 76.76, 132.95 98.36 11/28/2017 03:52:12 76.71, 133.69 98.37 19.60 72
5 11/30/2017 08:35:14 76.87, 62.27 98.85 11/30/2017 08:34:58 76.88, 62.35 98.86 2.40 16
6 11/30/2017 09:24:42 -76.84,-130.19 81.19 11/30/2017 09:25:52 -76.85,-130.25 81.16 1.91 70
7 12/02/2017 14:08:57 -76.90, 158.96 80.79 12/02/2017 14:08:35 -76.89, 158.96 80.80 1.11 22
8 12/02/2017 14:58:26 76.74, -33.97 99.03 12/02/2017 14:59:37 76.70, -32.98 99.06 25.72 71
9 12/04/2017 19:42:39 76.89,-104.50 99.50 12/04/2017 19:42:24 76.92,-104.54 99.52 3.28 15
10 12/04/2017 20:32:07 -76.87, 63.05 80.53 12/04/2017 20:33:18 -76.88, 62.92 80.51 3.61 71
11 12/07/2017 01:16:22 -76.92, -7.82 80.22 12/07/2017 01:16:01 -76.92, -7.89 80.22 1.83 21




NCC Satellite Simultaneous Nadir Overpasses (SNOs) Prediction Service
